contact:dominique.lefevre@mio.osupytheas.fr, maurice.libes@osupytheas.fr, didier.mallarino@osupytheas.fr
Project:EMSO http://www.emso-fr.org/EMSO-France
Depth: 2436.0 m
Title:EMSO Ligure Ouest : Data MII capteur CSTAR
DateTime,Latitude,Longitude,Instrument_Serial,Reference_Counts,Signal_Counts,Corrected_Signal_raw_counts,Calculated_Beam_c_inverse_meters,Internal_thermistor_counts
DateTime,Latitude,Longitude,Instrument_Serial,Reference_Counts,Signal_Counts,Corrected_Signal_raw_counts,Calculated_Beam_c_inverse_meters,Internal_thermistor_counts
2022-08-28T00:01:04,42.805,6.029,CST-1368DR,4596,5159,11950,01.070,551
2022-08-28T00:04:05,42.805,6.029,CST-1368DR,4596,5160,11953,01.069,551
2022-08-28T00:07:07,42.805,6.029,CST-1368DR,4597,5160,11950,01.070,551
2022-08-28T00:10:09,42.805,6.029,CST-1368DR,4597,5160,11950,01.070,551
2022-08-28T00:13:10,42.805,6.029,CST-1368DR,4597,5159,11949,01.071,551
2022-08-28T00:16:12,42.805,6.029,CST-1368DR,4596,5160,11952,01.070,551
2022-08-28T00:19:13,42.805,6.029,CST-1368DR,4597,5159,11948,01.071,551
2022-08-28T00:22:15,42.805,6.029,CST-1368DR,4597,5160,11951,01.070,551
2022-08-28T00:25:16,42.805,6.029,CST-1368DR,4597,5160,11951,01.070,551
2022-08-28T00:28:18,42.805,6.029,CST-1368DR,4596,5159,11952,01.070,551
2022-08-28T00:31:20,42.805,6.029,CST-1368DR,4596,5159,11950,01.070,551
2022-08-28T00:34:21,42.805,6.029,CST-1368DR,4596,5158,11949,01.071,551
2022-08-28T00:37:23,42.805,6.029,CST-1368DR,4596,5158,11949,01.071,551
2022-08-28T00:40:24,42.805,6.029,CST-1368DR,4596,5159,11951,01.070,551
2022-08-28T00:43:26,42.805,6.029,CST-1368DR,4596,5158,11949,01.071,551
2022-08-28T00:46:28,42.805,6.029,CST-1368DR,4596,5159,11950,01.070,551
2022-08-28T00:49:29,42.805,6.029,CST-1368DR,4596,5158,11949,01.071,551
2022-08-28T00:52:31,42.805,6.029,CST-1368DR,4596,5159,11950,01.070,551
2022-08-28T00:55:32,42.805,6.029,CST-1368DR,4596,5154,11939,01.074,551
2022-08-28T00:58:34,42.805,6.029,CST-1368DR,4596,5157,11946,01.072,551
2022-08-28T01:01:35,42.805,6.029,CST-1368DR,4596,5157,11947,01.071,551
2022-08-28T01:04:37,42.805,6.029,CST-1368DR,4596,5154,11939,01.074,551
2022-08-28T01:07:39,42.805,6.029,CST-1368DR,4596,5157,11946,01.072,551
2022-08-28T01:10:40,42.805,6.029,CST-1368DR,4596,5156,11944,01.072,551
2022-08-28T01:13:42,42.805,6.029,CST-1368DR,4596,5156,11943,01.073,551
2022-08-28T01:16:43,42.805,6.029,CST-1368DR,4596,5156,11944,01.072,551
2022-08-28T01:19:45,42.805,6.029,CST-1368DR,4596,5156,11944,01.072,551
2022-08-28T01:22:46,42.805,6.029,CST-1368DR,4596,5158,11948,01.071,551
2022-08-28T01:25:48,42.805,6.029,CST-1368DR,4596,5157,11945,01.072,551
2022-08-28T01:28:50,42.805,6.029,CST-1368DR,4596,5157,11947,01.071,551
2022-08-28T01:31:51,42.805,6.029,CST-1368DR,4596,5155,11941,01.073,551
2022-08-28T01:34:53,42.805,6.029,CST-1368DR,4596,5157,11947,01.071,551
2022-08-28T01:37:54,42.805,6.029,CST-1368DR,4596,5157,11947,01.071,551
2022-08-28T01:40:56,42.805,6.029,CST-1368DR,4596,5158,11948,01.071,551
2022-08-28T01:43:58,42.805,6.029,CST-1368DR,4596,5159,11950,01.070,551
2022-08-28T01:46:59,42.805,6.029,CST-1368DR,4596,5158,11948,01.071,551
2022-08-28T01:50:01,42.805,6.029,CST-1368DR,4596,5158,11949,01.071,551
2022-08-28T01:53:02,42.805,6.029,CST-1368DR,4596,5157,11946,01.072,551
2022-08-28T01:56:04,42.805,6.029,CST-1368DR,4596,5157,11947,01.071,551
2022-08-28T01:59:05,42.805,6.029,CST-1368DR,4596,5158,11949,01.071,551
2022-08-28T02:02:07,42.805,6.029,CST-1368DR,4596,5158,11948,01.071,551
2022-08-28T02:05:09,42.805,6.029,CST-1368DR,4596,5158,11948,01.071,551
2022-08-28T02:08:10,42.805,6.029,CST-1368DR,4596,5158,11948,01.071,551
2022-08-28T02:11:12,42.805,6.029,CST-1368DR,4596,5157,11946,01.072,551
2022-08-28T02:14:13,42.805,6.029,CST-1368DR,4596,5158,11949,01.071,551
2022-08-28T02:17:15,42.805,6.029,CST-1368DR,4596,5159,11950,01.070,551
2022-08-28T02:20:17,42.805,6.029,CST-1368DR,4596,5158,11949,01.071,551
2022-08-28T02:23:18,42.805,6.029,CST-1368DR,4596,5158,11948,01.071,551
2022-08-28T02:26:20,42.805,6.029,CST-1368DR,4596,5157,11946,01.072,551
2022-08-28T02:29:21,42.805,6.029,CST-1368DR,4596,5158,11948,01.071,551
2022-08-28T02:32:23,42.805,6.029,CST-1368DR,4596,5158,11948,01.071,551
2022-08-28T02:35:24,42.805,6.029,CST-1368DR,4596,5157,11946,01.072,551
2022-08-28T02:38:26,42.805,6.029,CST-1368DR,4596,5157,11947,01.071,551
2022-08-28T02:41:28,42.805,6.029,CST-1368DR,4596,5158,11948,01.071,551
2022-08-28T02:44:29,42.805,6.029,CST-1368DR,4596,5158,11949,01.071,551
2022-08-28T02:47:31,42.805,6.029,CST-1368DR,4596,5157,11947,01.071,551
2022-08-28T02:50:32,42.805,6.029,CST-1368DR,4596,5157,11947,01.071,551
2022-08-28T02:53:34,42.805,6.029,CST-1368DR,4596,5157,11947,01.071,551
2022-08-28T02:56:35,42.805,6.029,CST-1368DR,4596,5158,11949,01.071,551
2022-08-28T02:59:37,42.805,6.029,CST-1368DR,4596,5157,11946,01.072,551
2022-08-28T03:02:39,42.805,6.029,CST-1368DR,4596,5156,11943,01.073,551
2022-08-28T03:05:40,42.805,6.029,CST-1368DR,4596,5158,11949,01.071,551
2022-08-28T03:08:42,42.805,6.029,CST-1368DR,4596,5158,11948,01.071,551
2022-08-28T03:11:43,42.805,6.029,CST-1368DR,4596,5156,11943,01.073,551
2022-08-28T03:14:45,42.805,6.029,CST-1368DR,4596,5157,11947,01.071,551
2022-08-28T03:17:47,42.805,6.029,CST-1368DR,4596,5157,11947,01.071,551
2022-08-28T03:20:48,42.805,6.029,CST-1368DR,4596,5158,11948,01.071,551
2022-08-28T03:23:50,42.805,6.029,CST-1368DR,4596,5154,11939,01.074,551
2022-08-28T03:26:51,42.805,6.029,CST-1368DR,4596,5158,11948,01.071,551
2022-08-28T03:29:53,42.805,6.029,CST-1368DR,4596,5159,11950,01.070,551
2022-08-28T03:32:54,42.805,6.029,CST-1368DR,4596,5158,11948,01.071,551
2022-08-28T03:35:56,42.805,6.029,CST-1368DR,4596,5158,11948,01.071,551
2022-08-28T03:38:58,42.805,6.029,CST-1368DR,4596,5157,11947,01.071,551
2022-08-28T03:41:59,42.805,6.029,CST-1368DR,4596,5160,11953,01.069,551
2022-08-28T03:45:01,42.805,6.029,CST-1368DR,4596,5159,11952,01.070,551
2022-08-28T03:48:02,42.805,6.029,CST-1368DR,4596,5161,11956,01.068,551
2022-08-28T03:51:04,42.805,6.029,CST-1368DR,4596,5161,11954,01.069,550
2022-08-28T03:54:05,42.805,6.029,CST-1368DR,4596,5162,11957,01.068,551
2022-08-28T03:57:07,42.805,6.029,CST-1368DR,4596,5159,11950,01.070,551
2022-08-28T04:00:09,42.805,6.029,CST-1368DR,4596,5159,11950,01.070,551
2022-08-28T04:03:10,42.805,6.029,CST-1368DR,4596,5161,11954,01.069,551
2022-08-28T04:06:12,42.805,6.029,CST-1368DR,4596,5156,11944,01.072,551
2022-08-28T04:09:13,42.805,6.029,CST-1368DR,4596,5158,11949,01.071,551
2022-08-28T04:12:15,42.805,6.029,CST-1368DR,4596,5159,11952,01.070,551
2022-08-28T04:15:17,42.805,6.029,CST-1368DR,4596,5159,11952,01.070,551
2022-08-28T04:18:18,42.805,6.029,CST-1368DR,4596,5155,11942,01.073,551
2022-08-28T04:21:20,42.805,6.029,CST-1368DR,4596,5157,11947,01.071,551
2022-08-28T04:24:21,42.805,6.029,CST-1368DR,4596,5159,11950,01.070,551
2022-08-28T04:27:23,42.805,6.029,CST-1368DR,4596,5158,11948,01.071,551
2022-08-28T04:30:24,42.805,6.029,CST-1368DR,4596,5167,11969,01.064,551
2022-08-28T04:33:26,42.805,6.029,CST-1368DR,4596,5165,11965,01.065,551
2022-08-28T04:36:28,42.805,6.029,CST-1368DR,4596,5165,11965,01.065,551
2022-08-28T04:39:29,42.805,6.029,CST-1368DR,4596,5167,11970,01.064,551
2022-08-28T04:42:31,42.805,6.029,CST-1368DR,4596,5165,11965,01.065,551
2022-08-28T04:45:32,42.805,6.029,CST-1368DR,4596,5164,11963,01.066,551
2022-08-28T04:48:34,42.805,6.029,CST-1368DR,4596,5165,11965,01.065,551
2022-08-28T04:51:35,42.805,6.029,CST-1368DR,4596,5165,11964,01.066,551
2022-08-28T04:54:37,42.805,6.029,CST-1368DR,4596,5166,11968,01.064,551
2022-08-28T04:57:39,42.805,6.029,CST-1368DR,4596,5164,11963,01.066,551
2022-08-28T05:00:40,42.805,6.029,CST-1368DR,4596,5163,11961,01.067,551
2022-08-28T05:03:42,42.805,6.029,CST-1368DR,4596,5165,11965,01.065,551
2022-08-28T05:06:43,42.805,6.029,CST-1368DR,4596,5164,11963,01.066,551
2022-08-28T05:09:45,42.805,6.029,CST-1368DR,4596,5164,11963,01.066,551
2022-08-28T05:12:47,42.805,6.029,CST-1368DR,4596,5164,11963,01.066,551
2022-08-28T05:15:48,42.805,6.029,CST-1368DR,4596,5167,11969,01.064,551
2022-08-28T05:18:50,42.805,6.029,CST-1368DR,4596,5163,11961,01.067,551
2022-08-28T05:21:51,42.805,6.029,CST-1368DR,4596,5164,11963,01.066,551
2022-08-28T05:24:53,42.805,6.029,CST-1368DR,4596,5165,11964,01.066,551
2022-08-28T05:27:54,42.805,6.029,CST-1368DR,4596,5165,11965,01.065,551
2022-08-28T05:30:56,42.805,6.029,CST-1368DR,4596,5165,11964,01.066,551
2022-08-28T05:33:58,42.805,6.029,CST-1368DR,4596,5165,11964,01.066,551
2022-08-28T05:36:59,42.805,6.029,CST-1368DR,4596,5165,11964,01.066,551
2022-08-28T05:40:01,42.805,6.029,CST-1368DR,4596,5165,11965,01.065,551
2022-08-28T05:43:02,42.805,6.029,CST-1368DR,4596,5165,11964,01.066,551
2022-08-28T05:46:04,42.805,6.029,CST-1368DR,4596,5165,11964,01.066,551
2022-08-28T05:49:05,42.805,6.029,CST-1368DR,4596,5164,11963,01.066,550
2022-08-28T05:52:07,42.805,6.029,CST-1368DR,4596,5166,11966,01.065,551
2022-08-28T05:55:09,42.805,6.029,CST-1368DR,4596,5164,11963,01.066,551
2022-08-28T05:58:10,42.805,6.029,CST-1368DR,4596,5165,11964,01.066,551
2022-08-28T06:01:12,42.805,6.029,CST-1368DR,4596,5164,11961,01.067,551
2022-08-28T06:04:13,42.805,6.029,CST-1368DR,4596,5164,11961,01.067,551
2022-08-28T06:07:15,42.805,6.029,CST-1368DR,4596,5164,11962,01.066,551
2022-08-28T06:10:17,42.805,6.029,CST-1368DR,4596,5164,11963,01.066,551
2022-08-28T06:13:18,42.805,6.029,CST-1368DR,4596,5164,11963,01.066,551
2022-08-28T06:16:20,42.805,6.029,CST-1368DR,4596,5165,11964,01.066,551
2022-08-28T06:19:21,42.805,6.029,CST-1368DR,4596,5165,11964,01.066,551
2022-08-28T06:22:23,42.805,6.029,CST-1368DR,4596,5165,11964,01.066,551
2022-08-28T06:25:24,42.805,6.029,CST-1368DR,4596,5165,11964,01.066,551
2022-08-28T06:28:26,42.805,6.029,CST-1368DR,4596,5164,11963,01.066,551
2022-08-28T06:31:28,42.805,6.029,CST-1368DR,4596,5164,11963,01.066,551
2022-08-28T06:34:29,42.805,6.029,CST-1368DR,4596,5164,11963,01.066,551
2022-08-28T06:37:31,42.805,6.029,CST-1368DR,4596,5164,11962,01.066,551
2022-08-28T06:40:32,42.805,6.029,CST-1368DR,4596,5162,11959,01.067,551
2022-08-28T06:43:34,42.805,6.029,CST-1368DR,4596,5165,11964,01.066,551
2022-08-28T06:46:35,42.805,6.029,CST-1368DR,4596,5165,11964,01.066,551
2022-08-28T06:49:37,42.805,6.029,CST-1368DR,4596,5164,11962,01.066,551
2022-08-28T06:52:39,42.805,6.029,CST-1368DR,4596,5164,11962,01.066,551
2022-08-28T06:55:40,42.805,6.029,CST-1368DR,4596,5164,11961,01.067,551
2022-08-28T06:58:42,42.805,6.029,CST-1368DR,4596,5164,11963,01.066,551
2022-08-28T07:01:43,42.805,6.029,CST-1368DR,4596,5164,11962,01.066,551
2022-08-28T07:04:45,42.805,6.029,CST-1368DR,4596,5163,11960,01.067,551
2022-08-28T07:07:47,42.805,6.029,CST-1368DR,4596,5163,11959,01.067,551
2022-08-28T07:10:48,42.805,6.029,CST-1368DR,4596,5164,11963,01.066,551
2022-08-28T07:13:50,42.805,6.029,CST-1368DR,4596,5164,11963,01.066,551
2022-08-28T07:16:51,42.805,6.029,CST-1368DR,4596,5163,11960,01.067,551
2022-08-28T07:19:53,42.805,6.029,CST-1368DR,4596,5164,11963,01.066,551
2022-08-28T07:22:54,42.805,6.029,CST-1368DR,4596,5164,11963,01.066,551
2022-08-28T07:25:56,42.805,6.029,CST-1368DR,4596,5164,11963,01.066,551
2022-08-28T07:28:58,42.805,6.029,CST-1368DR,4596,5164,11963,01.066,551
2022-08-28T07:31:59,42.805,6.029,CST-1368DR,4596,5164,11961,01.067,551
2022-08-28T07:35:01,42.805,6.029,CST-1368DR,4596,5163,11961,01.067,551
2022-08-28T07:38:02,42.805,6.029,CST-1368DR,4596,5164,11962,01.066,551
2022-08-28T07:41:04,42.805,6.029,CST-1368DR,4596,5163,11959,01.067,551
2022-08-28T07:44:05,42.805,6.029,CST-1368DR,4596,5163,11961,01.067,551
2022-08-28T07:47:07,42.805,6.029,CST-1368DR,4596,5164,11962,01.066,551
2022-08-28T07:50:09,42.805,6.029,CST-1368DR,4596,5164,11961,01.067,551
2022-08-28T07:53:10,42.805,6.029,CST-1368DR,4596,5164,11962,01.066,551
2022-08-28T07:56:12,42.805,6.029,CST-1368DR,4596,5165,11965,01.065,551
2022-08-28T07:59:13,42.805,6.029,CST-1368DR,4596,5162,11959,01.067,551
2022-08-28T08:02:15,42.805,6.029,CST-1368DR,4596,5164,11962,01.066,551
2022-08-28T08:05:17,42.805,6.029,CST-1368DR,4596,5162,11958,01.068,551
2022-08-28T08:08:18,42.805,6.029,CST-1368DR,4596,5164,11963,01.066,551
2022-08-28T08:11:20,42.805,6.029,CST-1368DR,4596,5165,11964,01.066,551
2022-08-28T08:14:21,42.805,6.029,CST-1368DR,4596,5166,11967,01.065,551
2022-08-28T08:17:23,42.805,6.029,CST-1368DR,4596,5165,11964,01.066,551
2022-08-28T08:20:24,42.805,6.029,CST-1368DR,4596,5164,11961,01.067,551
2022-08-28T08:23:26,42.805,6.029,CST-1368DR,4596,5163,11960,01.067,551
2022-08-28T08:26:28,42.805,6.029,CST-1368DR,4596,5166,11966,01.065,551
2022-08-28T08:29:29,42.805,6.029,CST-1368DR,4596,5164,11963,01.066,551
2022-08-28T08:32:31,42.805,6.029,CST-1368DR,4596,5163,11961,01.067,551
2022-08-28T08:35:32,42.805,6.029,CST-1368DR,4596,5164,11963,01.066,551
2022-08-28T08:38:34,42.805,6.029,CST-1368DR,4596,5162,11959,01.067,551
2022-08-28T08:41:35,42.805,6.029,CST-1368DR,4596,5165,11965,01.065,551
2022-08-28T08:44:37,42.805,6.029,CST-1368DR,4596,5164,11963,01.066,551
2022-08-28T08:47:39,42.805,6.029,CST-1368DR,4596,5165,11965,01.065,551
2022-08-28T08:50:40,42.805,6.029,CST-1368DR,4596,5164,11963,01.066,551
2022-08-28T08:53:42,42.805,6.029,CST-1368DR,4596,5165,11965,01.065,551
2022-08-28T08:56:43,42.805,6.029,CST-1368DR,4596,5163,11961,01.067,551
2022-08-28T08:59:45,42.805,6.029,CST-1368DR,4596,5166,11966,01.065,551
2022-08-28T09:02:47,42.805,6.029,CST-1368DR,4596,5166,11966,01.065,551
2022-08-28T09:05:48,42.805,6.029,CST-1368DR,4596,5164,11962,01.066,551
2022-08-28T09:08:50,42.805,6.029,CST-1368DR,4596,5165,11964,01.066,551
2022-08-28T09:11:51,42.805,6.029,CST-1368DR,4596,5164,11963,01.066,551
2022-08-28T09:14:53,42.805,6.029,CST-1368DR,4596,5165,11964,01.066,551
2022-08-28T09:17:54,42.805,6.029,CST-1368DR,4596,5164,11963,01.066,551
2022-08-28T09:20:56,42.805,6.029,CST-1368DR,4596,5164,11963,01.066,551
2022-08-28T09:23:58,42.805,6.029,CST-1368DR,4596,5164,11962,01.066,551
2022-08-28T09:26:59,42.805,6.029,CST-1368DR,4596,5162,11957,01.068,551
2022-08-28T09:30:01,42.805,6.029,CST-1368DR,4596,5163,11959,01.067,551
2022-08-28T09:33:02,42.805,6.029,CST-1368DR,4596,5161,11956,01.068,551
2022-08-28T09:36:04,42.805,6.029,CST-1368DR,4596,5163,11961,01.067,551
2022-08-28T09:39:06,42.805,6.029,CST-1368DR,4596,5162,11957,01.068,551
2022-08-28T09:42:07,42.805,6.029,CST-1368DR,4596,5162,11957,01.068,551
2022-08-28T09:45:09,42.805,6.029,CST-1368DR,4596,5162,11959,01.067,551
2022-08-28T09:48:10,42.805,6.029,CST-1368DR,4596,5162,11957,01.068,551
2022-08-28T09:51:12,42.805,6.029,CST-1368DR,4596,5164,11963,01.066,551
2022-08-28T09:54:13,42.805,6.029,CST-1368DR,4596,5162,11957,01.068,551
2022-08-28T09:57:15,42.805,6.029,CST-1368DR,4596,5156,11944,01.072,551
2022-08-28T10:00:17,42.805,6.029,CST-1368DR,4596,5163,11959,01.067,551
2022-08-28T10:03:18,42.805,6.029,CST-1368DR,4596,5163,11960,01.067,551
2022-08-28T10:06:20,42.805,6.029,CST-1368DR,4596,5162,11957,01.068,551
2022-08-28T10:09:21,42.805,6.029,CST-1368DR,4596,5163,11961,01.067,551
2022-08-28T10:12:23,42.805,6.029,CST-1368DR,4596,5162,11959,01.067,551
2022-08-28T10:15:24,42.805,6.029,CST-1368DR,4596,5162,11957,01.068,551
2022-08-28T10:18:26,42.805,6.029,CST-1368DR,4596,5164,11963,01.066,551
2022-08-28T10:21:28,42.805,6.029,CST-1368DR,4596,5163,11961,01.067,551
2022-08-28T10:24:29,42.805,6.029,CST-1368DR,4596,5164,11962,01.066,551
2022-08-28T10:27:31,42.805,6.029,CST-1368DR,4596,5163,11959,01.067,551
2022-08-28T10:30:32,42.805,6.029,CST-1368DR,4596,5162,11958,01.068,551
2022-08-28T10:33:34,42.805,6.029,CST-1368DR,4596,5163,11960,01.067,551
2022-08-28T10:36:36,42.805,6.029,CST-1368DR,4596,5161,11956,01.068,551
2022-08-28T10:39:37,42.805,6.029,CST-1368DR,4596,5163,11959,01.067,551
2022-08-28T10:42:39,42.805,6.029,CST-1368DR,4596,5162,11957,01.068,551
2022-08-28T10:45:40,42.805,6.029,CST-1368DR,4596,5161,11956,01.068,551
2022-08-28T10:48:42,42.805,6.029,CST-1368DR,4596,5163,11961,01.067,551
2022-08-28T10:51:43,42.805,6.029,CST-1368DR,4596,5161,11956,01.068,550
2022-08-28T10:54:45,42.805,6.029,CST-1368DR,4596,5161,11956,01.068,551
2022-08-28T10:57:47,42.805,6.029,CST-1368DR,4596,5164,11963,01.066,551
2022-08-28T11:00:48,42.805,6.029,CST-1368DR,4596,5161,11956,01.068,551
2022-08-28T11:03:50,42.805,6.029,CST-1368DR,4596,5161,11954,01.069,551
2022-08-28T11:06:51,42.805,6.029,CST-1368DR,4596,5159,11950,01.070,551
2022-08-28T11:09:53,42.805,6.029,CST-1368DR,4596,5162,11957,01.068,551
2022-08-28T11:12:54,42.805,6.029,CST-1368DR,4596,5162,11958,01.068,551
2022-08-28T11:15:56,42.805,6.029,CST-1368DR,4596,5161,11956,01.068,551
2022-08-28T11:18:58,42.805,6.029,CST-1368DR,4596,5161,11956,01.068,551
2022-08-28T11:21:59,42.805,6.029,CST-1368DR,4596,5160,11952,01.070,551
2022-08-28T11:25:01,42.805,6.029,CST-1368DR,4596,5161,11956,01.068,551
2022-08-28T11:28:02,42.805,6.029,CST-1368DR,4596,5157,11946,01.072,551
2022-08-28T11:31:04,42.805,6.029,CST-1368DR,4596,5157,11945,01.072,551
2022-08-28T11:34:06,42.805,6.029,CST-1368DR,4596,5158,11949,01.071,551
2022-08-28T11:37:07,42.805,6.029,CST-1368DR,4596,5159,11951,01.070,551
2022-08-28T11:40:09,42.805,6.029,CST-1368DR,4596,5157,11947,01.071,551
2022-08-28T11:43:10,42.805,6.029,CST-1368DR,4596,5156,11943,01.073,551
2022-08-28T11:46:12,42.805,6.029,CST-1368DR,4596,5158,11949,01.071,551
2022-08-28T11:49:13,42.805,6.029,CST-1368DR,4596,5158,11949,01.071,551
2022-08-28T11:52:15,42.805,6.029,CST-1368DR,4596,5158,11949,01.071,551
2022-08-28T11:55:17,42.805,6.029,CST-1368DR,4596,5158,11949,01.071,551
2022-08-28T11:58:18,42.805,6.029,CST-1368DR,4596,5158,11949,01.071,551
2022-08-28T12:01:20,42.805,6.029,CST-1368DR,4596,5158,11948,01.071,551
2022-08-28T12:04:21,42.805,6.029,CST-1368DR,4596,5159,11950,01.070,551
2022-08-28T12:07:23,42.805,6.029,CST-1368DR,4596,5157,11946,01.072,551
2022-08-28T12:10:24,42.805,6.029,CST-1368DR,4596,5157,11947,01.071,551
2022-08-28T12:13:26,42.805,6.029,CST-1368DR,4596,5157,11946,01.072,551
2022-08-28T12:16:28,42.805,6.029,CST-1368DR,4596,5158,11948,01.071,551
2022-08-28T12:19:29,42.805,6.029,CST-1368DR,4596,5158,11948,01.071,551
2022-08-28T12:22:31,42.805,6.029,CST-1368DR,4596,5157,11947,01.071,551
2022-08-28T12:25:32,42.805,6.029,CST-1368DR,4596,5157,11947,01.071,551
2022-08-28T12:28:34,42.805,6.029,CST-1368DR,4596,5158,11949,01.071,551
2022-08-28T12:31:36,42.805,6.029,CST-1368DR,4596,5161,11956,01.068,551
2022-08-28T12:34:37,42.805,6.029,CST-1368DR,4596,5158,11948,01.071,551
2022-08-28T12:37:39,42.805,6.029,CST-1368DR,4596,5158,11948,01.071,551
2022-08-28T12:40:40,42.805,6.029,CST-1368DR,4596,5158,11948,01.071,551
2022-08-28T12:43:42,42.805,6.029,CST-1368DR,4596,5162,11957,01.068,551
2022-08-28T12:46:43,42.805,6.029,CST-1368DR,4596,5162,11958,01.068,551
2022-08-28T12:49:45,42.805,6.029,CST-1368DR,4596,5162,11957,01.068,551
2022-08-28T12:52:47,42.805,6.029,CST-1368DR,4596,5162,11958,01.068,551
2022-08-28T12:55:48,42.805,6.029,CST-1368DR,4596,5160,11953,01.069,551
2022-08-28T12:58:50,42.805,6.029,CST-1368DR,4596,5161,11954,01.069,551
2022-08-28T13:01:51,42.805,6.029,CST-1368DR,4596,5164,11962,01.066,551
2022-08-28T13:04:53,42.805,6.029,CST-1368DR,4596,5161,11956,01.068,551
2022-08-28T13:07:54,42.805,6.029,CST-1368DR,4596,5161,11956,01.068,551
2022-08-28T13:10:56,42.805,6.029,CST-1368DR,4596,5163,11959,01.067,551
2022-08-28T13:13:58,42.805,6.029,CST-1368DR,4596,5162,11957,01.068,551
2022-08-28T13:16:59,42.805,6.029,CST-1368DR,4596,5161,11955,01.069,551
2022-08-28T13:20:01,42.805,6.029,CST-1368DR,4596,5160,11954,01.069,551
2022-08-28T13:23:02,42.805,6.029,CST-1368DR,4596,5161,11955,01.069,551
2022-08-28T13:26:04,42.805,6.029,CST-1368DR,4596,5161,11955,01.069,551
2022-08-28T13:29:06,42.805,6.029,CST-1368DR,4596,5160,11954,01.069,551
2022-08-28T13:32:07,42.805,6.029,CST-1368DR,4596,5160,11953,01.069,551
2022-08-28T13:35:09,42.805,6.029,CST-1368DR,4596,5161,11954,01.069,551
2022-08-28T13:38:10,42.805,6.029,CST-1368DR,4596,5161,11956,01.068,551
2022-08-28T13:41:12,42.805,6.029,CST-1368DR,4596,5162,11957,01.068,551
2022-08-28T13:44:13,42.805,6.029,CST-1368DR,4595,5158,11952,01.070,551
2022-08-28T13:47:15,42.805,6.029,CST-1368DR,4596,5159,11951,01.070,551
2022-08-28T13:50:17,42.805,6.029,CST-1368DR,4595,5157,11949,01.071,551
2022-08-28T13:53:18,42.805,6.029,CST-1368DR,4596,5158,11948,01.071,551
2022-08-28T13:56:20,42.805,6.029,CST-1368DR,4596,5157,11946,01.072,551
2022-08-28T13:59:21,42.805,6.029,CST-1368DR,4595,5157,11949,01.071,551
2022-08-28T14:02:23,42.805,6.029,CST-1368DR,4596,5157,11947,01.071,551
2022-08-28T14:05:25,42.805,6.029,CST-1368DR,4596,5158,11949,01.071,551
2022-08-28T14:08:26,42.805,6.029,CST-1368DR,4596,5156,11943,01.073,551
2022-08-28T14:11:28,42.805,6.029,CST-1368DR,4596,5157,11946,01.072,551
2022-08-28T14:14:29,42.805,6.029,CST-1368DR,4596,5161,11956,01.068,551
2022-08-28T14:17:31,42.805,6.029,CST-1368DR,4596,5162,11959,01.067,551
2022-08-28T14:20:32,42.805,6.029,CST-1368DR,4596,5159,11950,01.070,551
2022-08-28T14:23:34,42.805,6.029,CST-1368DR,4596,5159,11950,01.070,551
2022-08-28T14:26:36,42.805,6.029,CST-1368DR,4596,5155,11942,01.073,551
2022-08-28T14:29:37,42.805,6.029,CST-1368DR,4596,5156,11943,01.073,551
2022-08-28T14:32:39,42.805,6.029,CST-1368DR,4596,5157,11947,01.071,551
2022-08-28T14:35:40,42.805,6.029,CST-1368DR,4596,5157,11945,01.072,551
2022-08-28T14:38:42,42.805,6.029,CST-1368DR,4596,5156,11943,01.073,551
2022-08-28T14:41:43,42.805,6.029,CST-1368DR,4596,5153,11938,01.074,551
2022-08-28T14:44:45,42.805,6.029,CST-1368DR,4596,5154,11938,01.074,551
2022-08-28T14:47:47,42.805,6.029,CST-1368DR,4596,5152,11935,01.075,551
2022-08-28T14:50:48,42.805,6.029,CST-1368DR,4596,5150,11930,01.077,551
2022-08-28T14:53:50,42.805,6.029,CST-1368DR,4596,5149,11927,01.078,551
2022-08-28T14:56:51,42.805,6.029,CST-1368DR,4596,5162,11957,01.068,551
2022-08-28T14:59:53,42.805,6.029,CST-1368DR,4596,5156,11944,01.072,551
2022-08-28T15:02:55,42.805,6.029,CST-1368DR,4595,5147,11926,01.078,551
2022-08-28T15:05:56,42.805,6.029,CST-1368DR,4595,5149,11929,01.077,551
2022-08-28T15:08:58,42.805,6.029,CST-1368DR,4595,5149,11929,01.077,551
2022-08-28T15:11:59,42.805,6.029,CST-1368DR,4596,5148,11926,01.078,551
2022-08-28T15:15:01,42.805,6.029,CST-1368DR,4595,5148,11928,01.078,551
2022-08-28T15:18:02,42.805,6.029,CST-1368DR,4595,5149,11931,01.077,551
2022-08-28T15:21:04,42.805,6.029,CST-1368DR,4596,5147,11924,01.079,551
2022-08-28T15:24:06,42.805,6.029,CST-1368DR,4595,5147,11926,01.078,551
2022-08-28T15:27:07,42.805,6.029,CST-1368DR,4595,5147,11926,01.078,551
2022-08-28T15:30:09,42.805,6.029,CST-1368DR,4595,5147,11926,01.078,551
2022-08-28T15:33:10,42.805,6.029,CST-1368DR,4595,5146,11922,01.080,551
2022-08-28T15:36:12,42.805,6.029,CST-1368DR,4595,5147,11926,01.078,551
2022-08-28T15:39:13,42.805,6.029,CST-1368DR,4595,5147,11926,01.078,551
2022-08-28T15:42:15,42.805,6.029,CST-1368DR,4595,5147,11926,01.078,551
2022-08-28T15:45:17,42.805,6.029,CST-1368DR,4595,5148,11929,01.077,551
2022-08-28T15:48:18,42.805,6.029,CST-1368DR,4595,5147,11926,01.078,551
2022-08-28T15:51:20,42.805,6.029,CST-1368DR,4595,5148,11927,01.078,551
2022-08-28T15:54:21,42.805,6.029,CST-1368DR,4595,5149,11930,01.077,551
2022-08-28T15:57:23,42.805,6.029,CST-1368DR,4595,5149,11930,01.077,551
2022-08-28T16:00:25,42.805,6.029,CST-1368DR,4595,5148,11929,01.077,551
2022-08-28T16:03:26,42.805,6.029,CST-1368DR,4595,5148,11927,01.078,551
2022-08-28T16:06:28,42.805,6.029,CST-1368DR,4595,5148,11928,01.078,551
2022-08-28T16:09:29,42.805,6.029,CST-1368DR,4595,5148,11927,01.078,551
2022-08-28T16:12:31,42.805,6.029,CST-1368DR,4595,5148,11929,01.077,551
2022-08-28T16:15:32,42.805,6.029,CST-1368DR,4595,5150,11932,01.076,551
2022-08-28T16:18:34,42.805,6.029,CST-1368DR,4595,5150,11932,01.076,551
2022-08-28T16:21:36,42.805,6.029,CST-1368DR,4595,5149,11930,01.077,551
2022-08-28T16:24:37,42.805,6.029,CST-1368DR,4595,5148,11927,01.078,551
2022-08-28T16:27:39,42.805,6.029,CST-1368DR,4595,5144,11919,01.081,551
2022-08-28T16:30:40,42.805,6.029,CST-1368DR,4595,5148,11927,01.078,551
2022-08-28T16:33:42,42.805,6.029,CST-1368DR,4595,5148,11927,01.078,551
2022-08-28T16:36:43,42.805,6.029,CST-1368DR,4595,5148,11927,01.078,551